Location: Newark
(50.0306°N, 2.3272°E)
Time: 18:27:45
(UTC+00:00)

Transit 2A Rocket - Pass Details

Date: 09 December 2019
Orbit: 593 x 910 km, 66.7° (Epoch: 19 January)

Event Time Altitude Azimuth Distance (km) Brightness Sun altitude
Rises 00:34:55 0° 324° (NW) 2,854 - -60.9°
Reaches altitude 10° 00:37:09 10° 329° (NNW) 1,964 - -60.7°
Maximum altitude 00:41:30 61° 49° (NE) 718 - -60.4°
Drops below altitude 10° 00:46:06 10° 131° (SE) 2,077 - -60.0°
Sets 00:48:31 0° 135° (SE) 3,034 - -59.8°
